Regional Weather Roundup
Issued by NWS

Home | Current Version | Previous Version | Text Only | Print | Product List | Glossary On
Versions: 1 2 3 4 5 6 7 8 9 10 11 12 13 14 15 16 17 18 19 20 21 22 23 24 25 26 27 28 29 30 31 32 33 34 35 36 37 38 39 40 41 42 43 44 45 46 47 48 49 50
450
ASUS44 KLIX 171811
RWRLA
LOUISIANA WEATHER ROUNDUP
NATIONAL WEATHER SERVICE NEW ORLEANS LA
100 PM CDT FRI APR 17 2015

NOTE: "FAIR" INDICATES FEW OR NO CLOUDS BELOW 12,000 FEET WITH NO
      SIGNIFICANT WEATHER AND/OR OBSTRUCTIONS TO VISIBILITY.
      SKY/WX - SKY CONDITION AND SIGNIFICANT WEATHER.
      TMP - AIR TEMPERATURE.    DP   - DEWPOINT TEMPERATURE.
      RH  - RELATIVE HUMIDITY.  PRES - PRESSURE.
      HX  - HEAT INDEX.         WCI  - WIND CHILL INDEX.

*  THESE STATIONS ARE NOT NWS OR FAA STATIONS AND ARE NOT UNDER
   NWS QUALITY CONTROL.

LAZ040-048-061>063-065-066-069-171900-
SOUTHEAST LOUISIANA

CITY           SKY/WX    TMP DP  RH WIND       PRES   REMARKS
N.O. AUDUBON     N/A     78  76  94 MISG        N/A
6HR MIN TEMP:  69; 6HR MAX TEMP:  78;

N.O. INTL ARPT PTSUNNY   77  71  82 S8        29.99F
6HR MIN TEMP:  69; 6HR MAX TEMP:  77; 6HR PCP: TRACE;

N.O. LAKEFRONT PTSUNNY   77  70  79 S8        29.99F
6HR MIN TEMP:  73; 6HR MAX TEMP:  79; 6HR PCP: TRACE;

SLIDELL        CLOUDY    79  71  76 S8        29.99S
6HR MIN TEMP:  68; 6HR MAX TEMP:  79;

BATON ROUGE    PTSUNNY   80  69  69 VRB5      29.99F
6HR MIN TEMP:  66; 6HR MAX TEMP:  80;

BOOTHVILLE     CLOUDY    77  72  84 S18       29.98F
6HR MIN TEMP:  70; 6HR MAX TEMP:  77; 6HR PCP: TRACE;

BELLE CHASSE   LGT RAIN  76  71  85 SW8       29.98F
6HR MIN TEMP:  68; 6HR MAX TEMP:  77; 6HR PCP: TRACE;

BOGALUSA*        N/A     80  68  66 S3        30.00F
6HR MIN TEMP:  69; 6HR MAX TEMP:  81;

GALLIANO*      CLOUDY    80  71  74 S9        29.99S
6HR MIN TEMP:  70; 6HR MAX TEMP:  81;

NEW ROADS*     CLOUDY    78  69  73 CALM      30.00F
6HR MIN TEMP:  67; 6HR MAX TEMP:  78;

GONZALES*      CLOUDY    79  70  74 CALM      29.99F
6HR MIN TEMP:  67; 6HR MAX TEMP:  79;

HAMMOND*       PTSUNNY   82  68  61 SW7       30.00F
HOUMA*         CLOUDY    75  72  88 S6        29.99S
PORT FOURCHON* CLEAR     77  72  83 SE7       30.00F

$$

LAZ041-044-053-054-171900-
SOUTHWEST LOUISIANA

CITY           SKY/WX    TMP DP  RH WIND       PRES   REMARKS
LAKE CHARLES   MOSUNNY   78  68  71 E9        29.98F
6HR MIN TEMP:  65; 6HR MAX TEMP:  78;

LAFAYETTE      PTSUNNY   79  68  69 VRB3      29.99F
6HR MIN TEMP:  67; 6HR MAX TEMP:  79;

PATTERSON      CLOUDY    75  68  78 NE3       30.01F
6HR MIN TEMP:  66; 6HR MAX TEMP:  75;

SALT POINT       N/A     76  71  85 SE5       29.98F
6HR MIN TEMP:  67; 6HR MAX TEMP:  77;

NEW IBERIA     CLOUDY    79  70  74 S5        30.00F
6HR MIN TEMP:  67; 6HR MAX TEMP:  79;

CHENAULT AIRPK NOT AVBL

$$

LAZ027-028-171900-
CENTRAL LOUISIANA

CITY           SKY/WX    TMP DP  RH WIND       PRES   REMARKS
FORT POLK      CLOUDY    76  66  71 VRB2      30.00F
6HR MIN TEMP:  62; 6HR MAX TEMP:  76;

ALEXANDRIA INT CLOUDY    74  65  73 VRB3      29.99F
6HR MIN TEMP:  63; 6HR MAX TEMP:  75;

ALEXANDRIA     PTSUNNY   78  66  66 W8        30.01F
6HR MIN TEMP:  63; 6HR MAX TEMP:  78;


$$

LAZ001-002-171900-
NORTHWEST LOUISIANA

CITY           SKY/WX    TMP DP  RH WIND       PRES   REMARKS
SHREVEPORT     PTSUNNY   76  65  68 NE7       30.00F
6HR MIN TEMP:  61; 6HR MAX TEMP:  77;

BARKSDALE AFB  MOSUNNY   75  63  67 NE6       30.00F
6HR MIN TEMP:  63; 6HR MAX TEMP:  75;

DTN SHREVEPORT PTSUNNY   73  63  70 VRB5      30.01F
6HR MIN TEMP:  63; 6HR MAX TEMP:  73;


$$

LAZ014-016-171900-
NORTHEAST LOUISIANA

CITY           SKY/WX    TMP DP  RH WIND       PRES   REMARKS
MONROE         PTSUNNY   78  63  59 VRB3      30.00F
6HR MIN TEMP:  61; 6HR MAX TEMP:  80;

TALLULAH       PTSUNNY   77  65  66 S7        29.99F
6HR MIN TEMP:  63; 6HR MAX TEMP:  79;


$$




USA.gov is the U.S. government's official web portal to all federal, state and local government web resources and services.